sat.trackr.live / text

‹ back to catalog

COSMOS 2601

NORAD 67675 · 2026-023B

PAYLOAD ACTIVE UNKNOWN

§ Identity

Operator
Country
CIS
Launch date
2026-02-05
Launch site
PLMSC
Launch vehicle
Mass (kg)
RCS (m²)

External: N2YO · Heavens-Above · Gunter

§ Orbital elements

Epoch: 2026-05-25T03:41:21.845184Z

Period
94.45 min
Inclination
96.6262°
Eccentricity
0.0016570
Mean motion
15.24609878 rev/d
Perigee alt
480.6 km
Apogee alt
503.3 km
Semi-major
6,870.1 km
B*
3.9123e-4
RAAN
209.2809°
Arg perigee
215.5686°
Mean anomaly
144.4451°
Rev number
1,650

§ Raw data

COSMOS 26011 67675U 26023B   26145.15372506  .00009629  00000+0  39123-3 0  99972 67675  96.6262 209.2809 0016570 215.5686 144.4451 15.24609878 16501

JSON: /api/v1/satellites/67675 · /tle

For live sub-satellite position, see the globe view (requires WebGL).

§ Visibility from observer

Set your observer location to see the next 7 days of passes ≥ 10°. The values pass through the URL so the page stays shareable.

No JS? Fill the form by hand. The geolocation button needs JavaScript.